| time (UTC) | temp F | wind direction | speed MPH | gust MPH | rain 1hr in | rain 24hr in | rain mn in | humidity % | barometer mb |
| 20260504141004 | 59 | 198 | 5.0 | 8.0 | 0.00 | 0.00 | 0.00 | 61 | 1014.7 |
| 20260504140551 | 59 | 194 | 2.0 | 8.0 | 0.00 | 0.00 | 0.00 | 62 | 1014.6 |
| 20260504130557 | 55 | 250 | 2.0 | 5.0 | 0.00 | 0.00 | 0.00 | 70 | 1015.1 |
| 20260504110528 | 37 | 360 | 0.0 | 0.0 | 0.00 | 0.00 | 0.00 | 95 | 1015.6 |
| 20260504110105 | 37 | 360 | 0.0 | 0.0 | 0.00 | 0.00 | 0.00 | 96 | 1015.6 |
| 20260504100533 | 34 | 286 | 0.0 | 0.0 | 0.00 | 0.00 | 0.00 | 94 | 1015.4 |
| 20260504081529 | 37 | 324 | 0.0 | 0.0 | 0.00 | 0.00 | 0.00 | 89 | 1015.4 |
| 20260504081048 | 37 | 324 | 0.0 | 0.0 | 0.00 | 0.00 | 0.00 | 89 | 1015.3 |
| 20260504080519 | 37 | 324 | 0.0 | 0.0 | 0.00 | 0.00 | 0.00 | 88 | 1015.3 |
| 20260504050506 | 39 | 290 | 0.0 | 0.0 | 0.00 | 0.00 | 0.00 | 88 | 1015.3 |
| 20260504050005 | 39 | 290 | 0.0 | 0.0 | 0.00 | 0.00 | 0.00 | 87 | 1015.3 |
| 20260504045557 | 39 | 290 | 0.0 | 0.0 | 0.00 | 0.00 | 0.00 | 87 | 1015.3 |
| 20260504045051 | 39 | 290 | 0.0 | 0.0 | 0.00 | 0.00 | 0.00 | 87 | 1015.3 |
| 20260504044505 | 40 | 290 | 0.0 | 0.0 | 0.00 | 0.00 | 0.00 | 87 | 1015.3 |
| 20260504044051 | 40 | 290 | 0.0 | 0.0 | 0.00 | 0.00 | 0.00 | 86 | 1015.3 |
| 20260504043546 | 40 | 290 | 0.0 | 0.0 | 0.00 | 0.00 | 0.00 | 86 | 1015.3 |
| 20260504043030 | 40 | 289 | 0.0 | 0.0 | 0.00 | 0.00 | 0.00 | 86 | 1015.2 |
| 20260504042506 | 40 | 288 | 0.0 | 0.0 | 0.00 | 0.00 | 0.00 | 86 | 1015.0 |
| 20260504042001 | 40 | 288 | 0.0 | 0.0 | 0.00 | 0.00 | 0.00 | 87 | 1015.1 |
| 20260504041536 | 40 | 288 | 0.0 | 1.0 | 0.00 | 0.00 | 0.00 | 86 | 1015.0 |
| 20260504041017 | 41 | 360 | 0.0 | 1.0 | 0.00 | 0.00 | 0.00 | 85 | 1014.9 |
| 20260504040600 | 41 | 360 | 0.0 | 0.0 | 0.00 | 0.00 | 0.00 | 84 | 1014.9 |
| 20260504040020 | 41 | 289 | 0.0 | 0.0 | 0.00 | 0.00 | 0.00 | 83 | 1014.8 |
| 20260504035541 | 41 | 360 | 0.0 | 1.0 | 0.00 | 0.00 | 0.00 | 83 | 1014.8 |
| 20260504035103 | 41 | 360 | 0.0 | 1.0 | 0.00 | 0.00 | 0.00 | 82 | 1014.8 |
| 20260504034510 | 42 | 360 | 0.0 | 1.0 | 0.00 | 0.00 | 0.00 | 82 | 1014.7 |
| 20260504034033 | 42 | 360 | 0.0 | 0.0 | 0.00 | 0.00 | 0.00 | 81 | 1014.6 |
| 20260504033608 | 42 | 360 | 0.0 | 0.0 | 0.00 | 0.00 | 0.00 | 81 | 1014.6 |
| 20260504033045 | 42 | 360 | 0.0 | 1.0 | 0.00 | 0.00 | 0.00 | 81 | 1014.7 |
| 20260504032603 | 42 | 360 | 0.0 | 1.0 | 0.00 | 0.00 | 0.00 | 80 | 1014.5 |
| 20260504032019 | 42 | 288 | 0.0 | 1.0 | 0.00 | 0.00 | 0.00 | 81 | 1014.6 |
| 20260504031624 | 42 | 288 | 0.0 | 1.0 | 0.00 | 0.00 | 0.00 | 79 | 1014.5 |
| 20260504031021 | 42 | 360 | 0.0 | 1.0 | 0.00 | 0.00 | 0.00 | 79 | 1014.5 |
| 20260504030550 | 42 | 360 | 0.0 | 2.0 | 0.00 | 0.00 | 0.00 | 79 | 1014.5 |
| 20260504030036 | 42 | 360 | 0.0 | 2.0 | 0.00 | 0.00 | 0.00 | 81 | 1014.5 |
| 20260504025605 | 42 | 360 | 0.0 | 0.0 | 0.00 | 0.00 | 0.00 | 81 | 1014.4 |
| 20260504025015 | 42 | 360 | 0.0 | 0.0 | 0.00 | 0.00 | 0.00 | 81 | 1014.4 |
| 20260504024540 | 42 | 360 | 0.0 | 0.0 | 0.00 | 0.00 | 0.00 | 81 | 1014.4 |
| 20260504024054 | 43 | 360 | 0.0 | 1.0 | 0.00 | 0.00 | 0.00 | 81 | 1014.4 |
| 20260504023504 | 43 | 360 | 0.0 | 1.0 | 0.00 | 0.00 | 0.00 | 81 | 1014.4 |
| 20260504023025 | 43 | 360 | 0.0 | 0.0 | 0.00 | 0.00 | 0.00 | 80 | 1014.4 |
| 20260504022548 | 43 | 360 | 0.0 | 0.0 | 0.00 | 0.00 | 0.00 | 80 | 1014.5 |
| 20260504022108 | 43 | 360 | 0.0 | 1.0 | 0.00 | 0.00 | 0.00 | 79 | 1014.4 |
| 20260504021517 | 44 | 260 | 0.0 | 1.0 | 0.00 | 0.00 | 0.00 | 77 | 1014.4 |
| 20260504021104 | 44 | 360 | 0.0 | 0.0 | 0.00 | 0.00 | 0.00 | 76 | 1014.4 |
| 20260504020518 | 44 | 360 | 0.0 | 0.0 | 0.00 | 0.00 | 0.00 | 76 | 1014.4 |
| 20260504020108 | 44 | 360 | 0.0 | 0.0 | 0.00 | 0.00 | 0.00 | 77 | 1014.4 |
| 20260504015519 | 44 | 360 | 0.0 | 0.0 | 0.00 | 0.00 | 0.00 | 74 | 1014.3 |
| 20260504015041 | 44 | 360 | 0.0 | 0.0 | 0.00 | 0.00 | 0.00 | 75 | 1014.3 |
| 20260504014604 | 44 | 360 | 0.0 | 0.0 | 0.00 | 0.00 | 0.00 | 75 | 1014.3 |
| 20260504014024 | 45 | 360 | 0.0 | 0.0 | 0.00 | 0.00 | 0.00 | 74 | 1014.3 |
| 20260504013554 | 45 | 360 | 0.0 | 0.0 | 0.00 | 0.00 | 0.00 | 74 | 1014.2 |
| 20260504013026 | 45 | 360 | 0.0 | 0.0 | 0.00 | 0.00 | 0.00 | 72 | 1014.3 |
| 20260504012558 | 46 | 259 | 0.0 | 1.0 | 0.00 | 0.00 | 0.00 | 71 | 1014.3 |
| 20260504012019 | 46 | 257 | 0.0 | 1.0 | 0.00 | 0.00 | 0.00 | 71 | 1014.3 |
| 20260504011604 | 47 | 360 | 0.0 | 1.0 | 0.00 | 0.00 | 0.00 | 71 | 1014.3 |
| 20260504011016 | 47 | 360 | 0.0 | 0.0 | 0.00 | 0.00 | 0.00 | 69 | 1014.2 |
| 20260504010547 | 47 | 360 | 0.0 | 0.0 | 0.00 | 0.00 | 0.00 | 68 | 1014.1 |
| 20260504010009 | 48 | 360 | 0.0 | 0.0 | 0.00 | 0.00 | 0.00 | 67 | 1014.0 |
| 20260504005532 | 48 | 360 | 0.0 | 0.0 | 0.00 | 0.00 | 0.00 | 66 | 1014.0 |
| 20260504005105 | 49 | 360 | 0.0 | 0.0 | 0.00 | 0.00 | 0.00 | 65 | 1013.9 |
| 20260504004537 | 49 | 360 | 0.0 | 0.0 | 0.00 | 0.00 | 0.00 | 62 | 1013.9 |
| 20260504004010 | 50 | 259 | 0.0 | 0.0 | 0.00 | 0.00 | 0.00 | 59 | 1013.9 |
| 20260504003556 | 50 | 258 | 0.0 | 0.0 | 0.00 | 0.00 | 0.00 | 59 | 1013.8 |
| 20260504003015 | 50 | 360 | 0.0 | 0.0 | 0.00 | 0.00 | 0.00 | 58 | 1013.6 |
| 20260504002536 | 51 | 259 | 0.0 | 0.0 | 0.00 | 0.00 | 0.00 | 57 | 1013.6 |
| 20260504002015 | 51 | 259 | 0.0 | 0.0 | 0.00 | 0.00 | 0.00 | 57 | 1013.5 |
| 20260504001549 | 52 | 260 | 0.0 | 0.0 | 0.00 | 0.00 | 0.00 | 55 | 1013.4 |
| 20260504001108 | 52 | 260 | 0.0 | 0.0 | 0.00 | 0.00 | 0.00 | 53 | 1013.4 |
| 20260504000516 | 53 | 259 | 0.0 | 1.0 | 0.00 | 0.00 | 0.00 | 51 | 1013.3 |
| 20260504000106 | 53 | 360 | 0.0 | 1.0 | 0.00 | 0.00 | 0.00 | 50 | 1013.2 |
| 20260503235534 | 54 | 360 | 0.0 | 1.0 | 0.00 | 0.00 | 0.00 | 49 | 1013.1 |
| 20260503235008 | 54 | 259 | 0.0 | 1.0 | 0.00 | 0.00 | 0.00 | 48 | 1013.1 |
| 20260503234604 | 54 | 360 | 0.0 | 1.0 | 0.00 | 0.00 | 0.00 | 47 | 1013.1 |
| 20260503234031 | 55 | 360 | 0.0 | 2.0 | 0.00 | 0.00 | 0.00 | 48 | 1013.1 |
| 20260503233500 | 55 | 360 | 0.0 | 2.0 | 0.00 | 0.00 | 0.00 | 46 | 1013.0 |
| 20260503233045 | 55 | 360 | 0.0 | 2.0 | 0.00 | 0.00 | 0.00 | 46 | 1013.0 |
| 20260503232554 | 56 | 360 | 0.0 | 2.0 | 0.00 | 0.00 | 0.00 | 46 | 1013.0 |
| 20260503232024 | 56 | 248 | 1.0 | 2.0 | 0.00 | 0.00 | 0.00 | 45 | 1013.1 |
| 20260503231608 | 56 | 250 | 1.0 | 3.0 | 0.00 | 0.00 | 0.00 | 44 | 1013.1 |
| 20260503231018 | 57 | 255 | 1.0 | 4.0 | 0.00 | 0.00 | 0.00 | 42 | 1013.1 |
| 20260503230546 | 57 | 251 | 1.0 | 4.0 | 0.00 | 0.00 | 0.00 | 42 | 1013.0 |
| 20260503230012 | 57 | 216 | 1.0 | 7.0 | 0.00 | 0.00 | 0.00 | 41 | 1012.9 |
| 20260503225601 | 57 | 128 | 1.0 | 7.0 | 0.00 | 0.00 | 0.00 | 41 | 1013.0 |
| 20260503225028 | 57 | 221 | 2.0 | 6.0 | 0.00 | 0.00 | 0.00 | 41 | 1012.9 |
| 20260503224510 | 58 | 250 | 1.0 | 4.0 | 0.00 | 0.00 | 0.00 | 42 | 1013.0 |
| 20260503224030 | 58 | 262 | 0.0 | 5.0 | 0.00 | 0.00 | 0.00 | 41 | 1013.0 |
| 20260503223550 | 58 | 195 | 2.0 | 7.0 | 0.00 | 0.00 | 0.00 | 39 | 1013.0 |
| 20260503223001 | 58 | 223 | 2.0 | 7.0 | 0.00 | 0.00 | 0.00 | 39 | 1012.9 |
| 20260503222545 | 57 | 210 | 2.0 | 7.0 | 0.00 | 0.00 | 0.00 | 40 | 1012.9 |
| 20260503222013 | 57 | 194 | 0.0 | 7.0 | 0.00 | 0.00 | 0.00 | 40 | 1012.8 |
| 20260503221647 | 57 | 105 | 1.0 | 13.0 | 0.00 | 0.00 | 0.00 | 41 | 1012.8 |
| 20260503221005 | 57 | 186 | 2.0 | 9.0 | 0.00 | 0.00 | 0.00 | 40 | 1012.7 |
| 20260503220526 | 58 | 249 | 1.0 | 9.0 | 0.00 | 0.00 | 0.00 | 42 | 1012.8 |
| 20260503220004 | 58 | 259 | 1.0 | 5.0 | 0.00 | 0.00 | 0.00 | 39 | 1012.8 |
| 20260503215651 | 58 | 277 | 0.0 | 5.0 | 0.00 | 0.00 | 0.00 | 40 | 1012.8 |
| 20260503215101 | 58 | 242 | 3.0 | 8.0 | 0.00 | 0.00 | 0.00 | 39 | 1012.8 |
| 20260503214551 | 58 | 153 | 3.0 | 8.0 | 0.00 | 0.00 | 0.00 | 38 | 1012.7 |
| 20260503214010 | 58 | 243 | 1.0 | 10.0 | 0.00 | 0.00 | 0.00 | 39 | 1012.7 |
| 20260503213530 | 58 | 202 | 2.0 | 6.0 | 0.00 | 0.00 | 0.00 | 39 | 1012.7 |
| 20260503213004 | 58 | 242 | 2.0 | 9.0 | 0.00 | 0.00 | 0.00 | 37 | 1012.7 |
| 20260503212539 | 58 | 306 | 0.0 | 4.0 | 0.00 | 0.00 | 0.00 | 39 | 1012.6 |
| 20260503212108 | 58 | 159 | 1.0 | 9.0 | 0.00 | 0.00 | 0.00 | 39 | 1012.6 |
| 20260503211522 | 58 | 241 | 3.0 | 9.0 | 0.00 | 0.00 | 0.00 | 38 | 1012.6 |
| 20260503211045 | 58 | 269 | 2.0 | 11.0 | 0.00 | 0.00 | 0.00 | 39 | 1012.7 |
| 20260503210523 | 58 | 281 | 2.0 | 10.0 | 0.00 | 0.00 | 0.00 | 38 | 1012.7 |
| 20260503205538 | 58 | 205 | 1.0 | 8.0 | 0.00 | 0.00 | 0.00 | 37 | 1012.7 |
| 20260503205056 | 58 | 184 | 1.0 | 6.0 | 0.00 | 0.00 | 0.00 | 39 | 1012.7 |
| 20260503204506 | 57 | 177 | 3.0 | 8.0 | 0.00 | 0.00 | 0.00 | 38 | 1012.7 |
| 20260503204049 | 57 | 217 | 3.0 | 9.0 | 0.00 | 0.00 | 0.00 | 39 | 1012.9 |
| 20260503203538 | 58 | 216 | 3.0 | 9.0 | 0.00 | 0.00 | 0.00 | 38 | 1013.0 |
| 20260503203116 | 58 | 255 | 3.0 | 9.0 | 0.00 | 0.00 | 0.00 | 38 | 1013.0 |
| 20260503202517 | 58 | 196 | 3.0 | 15.0 | 0.00 | 0.00 | 0.00 | 37 | 1012.9 |
| 20260503202148 | 58 | 220 | 4.0 | 15.0 | 0.00 | 0.00 | 0.00 | 37 | 1012.8 |
| 20260503201558 | 57 | 312 | 3.0 | 8.0 | 0.00 | 0.00 | 0.00 | 39 | 1012.9 |
| 20260503201018 | 57 | 212 | 2.0 | 13.0 | 0.00 | 0.00 | 0.00 | 39 | 1013.0 |
| 20260503200606 | 57 | 179 | 2.0 | 13.0 | 0.00 | 0.00 | 0.00 | 39 | 1013.2 |
| 20260503200024 | 57 | 286 | 4.0 | 12.0 | 0.00 | 0.00 | 0.00 | 38 | 1013.1 |
| 20260503195600 | 58 | 338 | 4.0 | 12.0 | 0.00 | 0.00 | 0.00 | 38 | 1013.2 |
| 20260503195009 | 57 | 319 | 3.0 | 16.0 | 0.00 | 0.00 | 0.00 | 38 | 1013.2 |
| 20260503194530 | 57 | 277 | 2.0 | 12.0 | 0.00 | 0.00 | 0.00 | 40 | 1013.3 |
| 20260503194004 | 58 | 203 | 5.0 | 12.0 | 0.00 | 0.00 | 0.00 | 36 | 1013.4 |
| 20260503193548 | 58 | 281 | 4.0 | 13.0 | 0.00 | 0.00 | 0.00 | 39 | 1013.5 |
| 20260503193108 | 57 | 327 | 2.0 | 15.0 | 0.00 | 0.00 | 0.00 | 41 | 1013.5 |
| 20260503192521 | 57 | 5 | 2.0 | 9.0 | 0.00 | 0.00 | 0.00 | 43 | 1013.6 |
| 20260503192038 | 56 | 194 | 1.0 | 4.0 | 0.00 | 0.00 | 0.00 | 44 | 1013.7 |
| 20260503191605 | 56 | 190 | 2.0 | 10.0 | 0.00 | 0.00 | 0.00 | 40 | 1013.7 |
| 20260503191011 | 57 | 327 | 4.0 | 13.0 | 0.00 | 0.00 | 0.00 | 38 | 1013.9 |
| 20260503190528 | 57 | 249 | 4.0 | 13.0 | 0.00 | 0.00 | 0.00 | 39 | 1013.9 |
| 20260503190048 | 57 | 192 | 3.0 | 12.0 | 0.00 | 0.00 | 0.00 | 43 | 1013.8 |
| 20260503185607 | 56 | 302 | 3.0 | 12.0 | 0.00 | 0.00 | 0.00 | 45 | 1013.8 |
| 20260503185037 | 56 | 230 | 3.0 | 9.0 | 0.00 | 0.00 | 0.00 | 41 | 1013.9 |
| 20260503184641 | 56 | 246 | 3.0 | 11.0 | 0.00 | 0.00 | 0.00 | 43 | 1013.9 |
| 20260503184015 | 56 | 234 | 4.0 | 12.0 | 0.00 | 0.00 | 0.00 | 41 | 1014.0 |
| 20260503183554 | 56 | 248 | 3.0 | 12.0 | 0.00 | 0.00 | 0.00 | 42 | 1014.0 |
| 20260503183038 | 57 | 241 | 3.0 | 11.0 | 0.00 | 0.00 | 0.00 | 42 | 1014.2 |
| 20260503182548 | 56 | 238 | 3.0 | 11.0 | 0.00 | 0.00 | 0.00 | 43 | 1014.0 |
| 20260503182110 | 56 | 238 | 3.0 | 14.0 | 0.00 | 0.00 | 0.00 | 43 | 1013.9 |
| 20260503181533 | 56 | 271 | 7.0 | 13.0 | 0.00 | 0.00 | 0.00 | 43 | 1014.0 |
| 20260503181016 | 56 | 265 | 4.0 | 10.0 | 0.00 | 0.00 | 0.00 | 44 | 1014.0 |
| 20260503180507 | 56 | 246 | 5.0 | 10.0 | 0.00 | 0.00 | 0.00 | 43 | 1014.0 |
| 20260503180054 | 55 | 198 | 2.0 | 8.0 | 0.00 | 0.00 | 0.00 | 47 | 1014.0 |
| 20260503175503 | 55 | 347 | 3.0 | 7.0 | 0.00 | 0.00 | 0.00 | 47 | 1014.1 |
| 20260503175046 | 55 | 229 | 4.0 | 7.0 | 0.00 | 0.00 | 0.00 | 42 | 1014.0 |
| 20260503174625 | 55 | 261 | 3.0 | 12.0 | 0.00 | 0.00 | 0.00 | 46 | 1014.1 |
| 20260503174127 | 54 | 140 | 1.0 | 12.0 | 0.00 | 0.00 | 0.00 | 43 | 1014.2 |
| 20260503173600 | 54 | 273 | 3.0 | 11.0 | 0.00 | 0.00 | 0.00 | 44 | 1014.1 |
| 20260503173013 | 54 | 187 | 6.0 | 13.0 | 0.00 | 0.00 | 0.00 | 44 | 1014.3 |
| 20260503172533 | 54 | 292 | 6.0 | 13.0 | 0.00 | 0.00 | 0.00 | 44 | 1014.2 |
| 20260503172053 | 54 | 80 | 3.0 | 12.0 | 0.00 | 0.00 | 0.00 | 47 | 1014.2 |
| 20260503171528 | 53 | 221 | 4.0 | 13.0 | 0.00 | 0.00 | 0.00 | 47 | 1014.3 |
| 20260503171044 | 53 | 355 | 2.0 | 14.0 | 0.00 | 0.00 | 0.00 | 46 | 1014.2 |
| 20260503170511 | 53 | 84 | 3.0 | 12.0 | 0.00 | 0.00 | 0.00 | 48 | 1014.4 |
| 20260503150521 | 50 | 152 | 2.0 | 10.0 | 0.00 | 0.00 | 0.00 | 53 | 1014.9 |